Torna al catalogo

FENGYUN 1C DEB

AttivoSSO
NORAD 29922·DEBRIS·🇨🇳 China

Lanciato May 10, 1999 da Taiyuan Satellite Launch Center

Loading…

Prossimi Passaggi (prossime 24 ore)

TLE

AggiornatoSource: Space-Track

Epoca: Sep 14, 2026, 09:20 UTC

1 29922U 99025HU  26257.38936436  .00000369  00000-0  27780-3 0  9998
2 29922  99.0999 318.2360 0092401 330.0697  29.5202 13.98718190  2850

Traccia FENGYUN 1C DEB in tempo reale con AllMySat

Download on the App Store